This is the latest recevied weather packets stored in our database for station/object NC4J. If no packets are shown the sender has not sent any weather packets the latest 1 day(s).
| Time | Temp. | Humidity | Pressure | Rain* | Wind** | Luminosity | Snow |
|---|---|---|---|---|---|---|---|
| 1778080823 | 17.78° C | 70% | 1016.3 hPa | 0 mm | - | 21 W/m² | - |
| 1778079914 | 17.78° C | 66% | 1015.5 hPa | 0 mm | - | 53 W/m² | - |
| 1778078096 | 17.78° C | 64% | 1015.4 hPa | 0 mm | - | 77 W/m² | - |
| 1778077795 | 17.78° C | 64% | 1015.2 hPa | 0 mm | - | 80 W/m² | - |
| 1778077190 | 17.78° C | 65% | 1015.1 hPa | 0 mm | - | 77 W/m² | - |
| 1778076888 | 17.22° C | 66% | 1015.2 hPa | 0 mm | - | 75 W/m² | - |
| 1778075979 | 17.22° C | 66% | 1015 hPa | 0 mm | - | 44 W/m² | - |
| 1778075677 | 17.22° C | 65% | 1015 hPa | 0 mm | - | 45 W/m² | - |
| 1778075069 | 17.22° C | 65% | 1014.4 hPa | 0 mm | - | 46 W/m² | - |
| 1778074766 | 17.22° C | 67% | 1015 hPa | 0 mm | - | 48 W/m² | - |
| 1778074463 | 17.22° C | 65% | 1015 hPa | 0 mm | - | 40 W/m² | - |
| 1778074160 | 17.22° C | 65% | 1015 hPa | 0 mm | - | 24 W/m² | - |
| 1778073857 | 17.22° C | 64% | 1015.3 hPa | 0 mm | - | 20 W/m² | - |
| 1778072948 | 17.78° C | 64% | 1014.8 hPa | 0 mm | - | 36 W/m² | - |
| 1778072644 | 17.22° C | 65% | 1014.6 hPa | 0 mm | - | 31 W/m² | - |
| 1778071435 | 17.22° C | 65% | 1014.4 hPa | 0 mm | - | 28 W/m² | - |
| 1778071133 | 17.22° C | 66% | 1014.1 hPa | 0 mm | - | 22 W/m² | - |
| 1778070831 | 16.67° C | 67% | 1014.2 hPa | 0 mm | - | 17 W/m² | - |
| 1778070528 | 16.67° C | 68% | 1014.7 hPa | 0 mm | - | 18 W/m² | - |
| 1778069317 | 16.67° C | 68% | 1014.7 hPa | 0 mm | - | 20 W/m² | - |
| 1778069015 | 16.67° C | 66% | 1014.8 hPa | 0 mm | - | 18 W/m² | - |
| 1778068410 | 16.67° C | 66% | 1014.8 hPa | 0 mm | - | 14 W/m² | - |
| 1778067805 | 16.67° C | 66% | 1014.4 hPa | 0 mm | - | 15 W/m² | - |
| 1778066897 | 17.22° C | 62% | 1014.9 hPa | 0 mm | - | 7 W/m² | - |
| 1778065687 | 17.22° C | 62% | 1014.8 hPa | 0 mm | - | 6 W/m² | - |
* Rain latest hour (hover to see other rain measurements)
** Current wind speed in m/s (hover to see current wind gust speed)